Regional Weather Roundup
Issued by NWS

Home | Current Version | Previous Version | Graphics & Text | Print | Product List | Glossary On
Versions: 1 2 3 4 5 6 7 8 9 10 11 12 13 14 15 16 17 18 19 20 21 22 23 24 25 26 27 28 29 30 31 32 33 34 35 36 37 38 39 40 41 42 43 44 45 46 47 48 49 50
000
ASUS43 KLOT 311109
RWRIL

ILLINOIS REGIONAL WEATHER ROUNDUP
NATIONAL WEATHER SERVICE CHICAGO/ROMEOVILLE IL
600 AM CDT WED AUG 31 2016

NOTE: "FAIR" INDICATES FEW OR NO CLOUDS BELOW 12,000 FEET WITH NO
SIGNIFICANT WEATHER AND/OR OBSTRUCTIONS TO VISIBILITY.

* THESE STATIONS ARE NOT UNDER NWS QUALITY CONTROL. THEY ALSO MAY NOT
  REPORT WEATHER SUCH AS PRECIPITATION OR FOG.

ILZ001-002-007-009-015-016-024-311200-
NORTHWEST ILLINOIS

CITY           SKY/WX    TMP DP  RH WIND       PRES   REMARKS
MOLINE         CLOUDY    70  65  84 N3        30.07S
STERLING*      MOCLDY    67  65  93 N3        30.08R
SAVANNA*       CLOUDY    65  63  91 NW3       30.09R
$$

ILZ003-004-008-010-011-017-018-311200-
NORTH CENTRAL ILLINOIS

CITY           SKY/WX    TMP DP  RH WIND       PRES   REMARKS
ROCKFORD       CLOUDY    68  64  87 NE16      30.08R
FREEPORT*      MOCLDY    63  61  95 N3        30.10S
ROCHELLE*      CLOUDY    66  65  97 N7        30.07S
DE KALB*       CLOUDY    67  66  95 NE10G18   30.07S
$$

ILZ005-006-012>014-019>023-311200-
NORTHEAST ILLINOIS

CITY           SKY/WX    TMP DP  RH WIND       PRES   REMARKS
CHICAGO-OHARE  CLOUDY    70  65  84 N12       30.05R
CHICAGO-MIDWAY CLOUDY    72  67  84 N14       30.04R
AURORA         CLOUDY    69  66  90 N7        30.05R
LANSING*       CLOUDY    71  70  97 N8        30.04R
JOLIET*        PTCLDY    70  69  95 CALM      30.04R
WAUKEGAN       CLEAR     65  61  87 N7        30.05R
DUPAGE AIRPORT CLOUDY    69  65  86 N12       30.05R
KANKAKEE*      PTCLDY    69  68  96 CALM      30.04S
WHEELING       CLOUDY    68  63  84 N9        30.06R
MORRIS*        PTCLDY    68  67  97 CALM      30.03S FOG
ROMEOVILLE*    PTCLDY    69  69 100 N5        30.04S
NORTHERLY ISL    N/A     71  67  87 NW17        N/A
$$

LMZ740>746-311200-
SOUTHERN LAKE MICHIGAN

STATION/POSITION SKY/WX   TEMP    WIND        PRES    VSBY  WAVE
                          AIR SEA DIR/SP/G                  HT/PER
                          (F)     (DEG/KT/KT) (MB)    (MI)  (FT/S)
SOUTHERN BUOY              72 75   20/ 17/ 19 1015.5R         3/ 4
WILMETTE HARBOR            71 72   10/ 14/ 17   N/A           4/ 4
HARRISON CRIB              72     340/ 19/ 21   N/A
BURNHAM HARBOR             71     340/ 14/ 16   N/A
CALUMET HARBOR             71     330/  8/ 16 1016.2F
BURNS HARBOR               74     330/  6/ 11 1016.9F
MICHIGAN CITY              72     310/  6/  7   N/A
MICHIGAN CITY 6N           73 69  330/  8/ 10   N/A           1/ 3
ST. JOSEPH                 74 74  320/  6/  8 1015.8S         1/ 3
$$

ILZ025>027-034>036-040-047-049-050-058-095>099-311200-
WEST-CENTRAL ILLINOIS

CITY           SKY/WX    TMP DP  RH WIND       PRES   REMARKS
QUINCY         CLOUDY    71  70  96 CALM      30.07S FOG
GALESBURG*     MOCLDY    69  68  97 CALM      30.08R FOG
MACOMB*        CLOUDY    70  70  98 CALM      30.09S
JACKSONVILLE*  CLOUDY    69  69  97 CALM      30.06S FOG
PITTSFIELD*    CLOUDY    69  69  99 CALM      30.08S FOG
$$

ILZ028>032-037-038-041>044-048-051>054-059>061-311200-
CENTRAL ILLINOIS

CITY           SKY/WX    TMP DP  RH WIND       PRES   REMARKS
PONTIAC        CLOUDY    70  70 100 CALM      30.05R FOG
BLOOMINGTON    PTCLDY    70  68  93 CALM      30.06S
DECATUR        PTCLDY    72  70  93 NW5       30.05R FOG
PEORIA         PTCLDY    70  70 100 CALM      30.06R
LACON*         CLOUDY    69  68  97 CALM      30.05R
LINCOLN*       CLOUDY    71  71 100 CALM      30.05S FOG
SPRINGFIELD    PTCLDY    70  68  93 W3        30.06R FOG
TAYLORVILLE    FOG       68  68 100 CALM      30.05S VSB 1/2
$$

ILZ033-039-045-046-055>057-062-063-311200-
EAST-CENTRAL ILLINOIS

CITY           SKY/WX    TMP DP  RH WIND       PRES   REMARKS
CHAMPAIGN      FOG       70  70 100 NW5       30.05R VSB 1
RANTOUL*       CLOUDY    72  71  98 NW5       30.05R
MATTOON        MOCLDY    69  67  93 NW5       30.04R FOG
PARIS*         FOG       68  68 100 CALM      30.05R VSB 1/2
$$

ILZ079-100>102-311200-
SOUTHWEST ILLINOIS

CITY           SKY/WX    TMP DP  RH WIND       PRES   REMARKS
ALTON          PTCLDY    68  68  99 CALM      30.06S FOG
BELLEVILLE     CLOUDY    72  72 100 N2        30.05R FOG
CAHOKIA*       MOCLDY    70  68  93 CALM      30.06R FOG
SPARTA*        CLOUDY    70  70  99 NW3       30.06S FOG
$$

ILZ064>066-069>071-074>076-080>082-084>086-088>090-092>094-311200-
SOUTH-CENTRAL ILLINOIS

CITY           SKY/WX    TMP DP  RH WIND       PRES   REMARKS
CARBONDALE     FOG       71  70  96 N7        30.04R VSB 1/4
CAIRO*         CLEAR     70  70 100 CALM      30.02S FOG
EFFINGHAM*     FOG       69  69 100 CALM      30.06R VSB 3/4
MARION         CLOUDY    73  72  94 CALM      30.04S FOG
MT. VERNON     CLOUDY    72  66  83 CALM      30.05S
CENTRALIA*     FOG       73  73 100 NW5       30.05S VSB 1/2
SALEM*         FOG       72  71  95 CALM      30.06R VSB 1/4
METROPOLIS*    CLEAR     71  71  98 CALM      30.02S FOG
$$

ILZ067-068-072-073-078-083-087-091-311200-
SOUTHEAST ILLINOIS

CITY           SKY/WX    TMP DP  RH WIND       PRES   REMARKS
LAWRENCEVILLE  CLEAR     71  71 100 CALM      30.03R
FLORA*         CLEAR     72  71  96 NW5       30.04S FOG
FAIRFIELD*       N/A     71  71  99 CALM      30.03S
HARRISBURG*    CLEAR     72  71  99 NW3       30.03R
ROBINSON*      CLEAR     67  67 100 CALM      30.04S FOG
CARMI*         PTCLDY    71  71 100 NW5       30.02S
$$

ABBREVIATIONS USED IN REMARKS
   TC - TEMPERATURE IN CELSIUS
  WCI - WIND CHILL INDEX
   HX - HEAT INDEX
  VSB - VISIBILITY
$$





USA.gov is the U.S. government's official web portal to all federal, state and local government web resources and services.